sat.trackr.live / text

‹ back to catalog

MEXSAT 3

NORAD 39035 · 2012-075B

PAYLOAD ACTIVE UNKNOWN

§ Identity

Operator
Country
MEX
Launch date
2012-12-19
Launch site
FRGUI
Launch vehicle
Mass (kg)
RCS (m²)
79.45

Purposes: comms

External: N2YO · Heavens-Above · Gunter

§ Orbital elements

Epoch: 2026-09-13T02:35:10.400928Z

Period
1,436.10 min
Inclination
0.0085°
Eccentricity
0.0001406
Mean motion
1.00271552 rev/d
Perigee alt
35,780.7 km
Apogee alt
35,792.6 km
Semi-major
42,164.8 km
B*
0.0000e+0
RAAN
136.8476°
Arg perigee
98.0275°
Mean anomaly
41.2659°
Rev number
793

§ Raw data

MEXSAT 31 39035U 12075B   26256.10775927 -.00000038  00000+0  00000+0 0  99942 39035   0.0085 136.8476 0001406  98.0275  41.2659  1.00271552  7931

JSON: /api/v1/satellites/39035 · /tle

For live sub-satellite position, see the globe view (requires WebGL).

§ Visibility from observer

Set your observer location to see the next 7 days of passes ≥ 10°. The values pass through the URL so the page stays shareable.

No JS? Fill the form by hand. The geolocation button needs JavaScript.